Time,TemperatureF,DewpointF,PressureIn,WindDirection,WindDirectionDegrees,WindSpeedMPH,WindSpeedGustMPH,Humidity,HourlyPrecipIn,Conditions,Clouds,dailyrainin,SoftwareType,DateUTC
2013-06-09 00:01:00,74.0,34.0,-100.00,NNW,335,2.0,6.0,24,0.00,,,-99.99,,2013-06-09 00:01:00,
2013-06-09 00:11:00,73.0,33.0,-100.00,North,359,8.0,12.0,23,0.00,,,-99.99,,2013-06-09 00:11:00,
2013-06-09 00:21:00,73.0,34.0,-100.00,North,354,4.0,11.0,24,0.00,,,-99.99,,2013-06-09 00:21:00,
2013-06-09 00:32:00,73.0,34.0,-100.00,North,10,5.0,8.0,24,0.00,,,-99.99,,2013-06-09 00:32:00,
2013-06-09 00:42:00,73.0,33.0,-100.00,ENE,62,2.0,4.0,23,0.00,,,-99.99,,2013-06-09 00:42:00,
2013-06-09 00:51:00,73.0,32.0,-100.00,NW,318,8.0,12.0,22,0.00,,,-99.99,,2013-06-09 00:51:00,
2013-06-09 01:02:00,72.0,31.0,-100.00,NNW,328,6.0,8.0,22,0.00,,,-99.99,,2013-06-09 01:02:00,
2013-06-09 01:11:00,73.0,30.0,-100.00,WNW,296,3.0,4.0,20,0.00,,,-99.99,,2013-06-09 01:11:00,
2013-06-09 01:21:00,72.0,30.0,-100.00,NNW,330,9.0,10.0,21,0.00,,,-99.99,,2013-06-09 01:21:00,
2013-06-09 01:32:00,72.0,31.0,-100.00,NW,322,4.0,5.0,22,0.00,,,-99.99,,2013-06-09 01:32:00,
2013-06-09 01:41:00,72.0,32.0,-100.00,NW,309,9.0,11.0,23,0.00,,,-99.99,,2013-06-09 01:41:00,
2013-06-09 01:52:00,71.0,31.0,-100.00,NW,320,7.0,10.0,22,0.00,,,-99.99,,2013-06-09 01:52:00,
2013-06-09 02:02:00,71.0,33.0,-100.00,NW,312,7.0,10.0,25,0.00,,,-99.99,,2013-06-09 02:02:00,
2013-06-09 02:11:00,71.0,33.0,-100.00,NW,305,6.0,7.0,25,0.00,,,-99.99,,2013-06-09 02:11:00,
2013-06-09 02:32:00,70.0,33.0,-100.00,West,265,3.0,4.0,25,0.00,,,-99.99,,2013-06-09 02:32:00,
2013-06-09 02:41:00,70.0,33.0,-100.00,WNW,292,4.0,6.0,26,0.00,,,-99.99,,2013-06-09 02:41:00,
2013-06-09 02:52:00,68.0,34.0,-100.00,SSW,199,4.0,6.0,28,0.00,,,-99.99,,2013-06-09 02:52:00,
2013-06-09 03:02:00,67.0,33.0,-100.00,SW,215,4.0,6.0,28,0.00,,,-99.99,,2013-06-09 03:02:00,
2013-06-09 03:11:00,67.0,33.0,-100.00,SE,141,1.0,2.0,28,0.00,,,-99.99,,2013-06-09 03:11:00,
2013-06-09 03:21:00,65.0,32.0,-100.00,SSW,202,4.0,6.0,28,0.00,,,-99.99,,2013-06-09 03:21:00,
2013-06-09 03:32:00,65.0,33.0,-100.00,SSW,193,1.0,3.0,29,0.00,,,-99.99,,2013-06-09 03:32:00,
2013-06-09 03:43:00,64.0,33.0,-100.00,WSW,241,1.0,2.0,31,0.00,,,-99.99,,2013-06-09 03:43:00,
2013-06-09 03:53:00,65.0,33.0,-100.00,South,191,2.0,3.0,31,0.00,,,-99.99,,2013-06-09 03:53:00,
2013-06-09 04:02:00,65.0,33.0,-100.00,SSW,210,3.0,6.0,30,0.00,,,-99.99,,2013-06-09 04:02:00,
2013-06-09 04:12:00,65.0,33.0,-100.00,South,179,6.0,6.0,30,0.00,,,-99.99,,2013-06-09 04:12:00,
2013-06-09 04:22:00,64.0,33.0,-100.00,South,184,3.0,4.0,31,0.00,,,-99.99,,2013-06-09 04:22:00,
2013-06-09 04:32:00,62.0,33.0,-100.00,SSE,154,3.0,4.0,33,0.00,,,-99.99,,2013-06-09 04:32:00,
2013-06-09 04:42:00,62.0,32.0,-100.00,SW,220,1.0,2.0,32,0.00,,,-99.99,,2013-06-09 04:42:00,
2013-06-09 04:52:00,61.0,33.0,-100.00,ENE,66,1.0,2.0,34,0.00,,,-99.99,,2013-06-09 04:52:00,
2013-06-09 05:02:00,62.0,31.0,-100.00,SE,143,2.0,3.0,32,0.00,,,-99.99,,2013-06-09 05:02:00,
2013-06-09 05:11:00,62.0,31.0,-100.00,SW,233,0.0,1.0,32,0.00,,,-99.99,,2013-06-09 05:11:00,
2013-06-09 05:21:00,61.0,31.0,-100.00,SE,127,2.0,3.0,32,0.00,,,-99.99,,2013-06-09 05:21:00,
2013-06-09 05:32:00,61.0,31.0,-100.00,South,191,2.0,3.0,32,0.00,,,-99.99,,2013-06-09 05:32:00,
2013-06-09 05:42:00,62.0,29.0,-100.00,SSW,196,1.0,2.0,28,0.00,,,-99.99,,2013-06-09 05:42:00,
2013-06-09 05:52:00,62.0,29.0,-100.00,SW,224,0.0,0.0,28,0.00,,,-99.99,,2013-06-09 05:52:00,
2013-06-09 06:02:00,62.0,28.0,-100.00,SSW,196,1.0,2.0,27,0.00,,,-99.99,,2013-06-09 06:02:00,
2013-06-09 06:11:00,62.0,28.0,-100.00,SW,234,2.0,3.0,28,0.00,,,-99.99,,2013-06-09 06:11:00,
2013-06-09 06:21:00,62.0,27.0,-100.00,SSW,208,4.0,4.0,27,0.00,,,-99.99,,2013-06-09 06:21:00,
2013-06-09 06:32:00,61.0,27.0,-100.00,SSW,210,2.0,4.0,27,0.00,,,-99.99,,2013-06-09 06:32:00,
2013-06-09 06:42:00,60.0,28.0,-100.00,SW,223,0.0,1.0,28,0.00,,,-99.99,,2013-06-09 06:42:00,
2013-06-09 06:52:00,59.0,28.0,-100.00,SSE,161,2.0,2.0,30,0.00,,,-99.99,,2013-06-09 06:52:00,
2013-06-09 07:02:00,58.0,28.0,-100.00,SSW,195,1.0,2.0,32,0.00,,,-99.99,,2013-06-09 07:02:00,
2013-06-09 07:11:00,60.0,27.0,-100.00,South,178,4.0,6.0,29,0.00,,,-99.99,,2013-06-09 07:11:00,
2013-06-09 07:21:00,61.0,27.0,-100.00,South,178,6.0,7.0,27,0.00,,,-99.99,,2013-06-09 07:21:00,
2013-06-09 07:32:00,61.0,28.0,-100.00,SSW,212,3.0,4.0,28,0.00,,,-99.99,,2013-06-09 07:32:00,
2013-06-09 07:42:00,62.0,27.0,-100.00,SSW,192,6.0,7.0,27,0.00,,,-99.99,,2013-06-09 07:42:00,
2013-06-09 07:52:00,62.0,28.0,-100.00,SSW,193,4.0,6.0,28,0.00,,,-99.99,,2013-06-09 07:52:00,
2013-06-09 08:02:00,61.0,28.0,-100.00,South,191,6.0,7.0,28,0.00,,,-99.99,,2013-06-09 08:02:00,
2013-06-09 08:11:00,62.0,29.0,-100.00,SSW,196,6.0,7.0,28,0.00,,,-99.99,,2013-06-09 08:11:00,
2013-06-09 08:22:00,63.0,30.0,-100.00,SSW,203,6.0,7.0,28,0.00,,,-99.99,,2013-06-09 08:22:00,
2013-06-09 08:32:00,61.0,30.0,-100.00,South,179,7.0,9.0,31,0.00,,,-99.99,,2013-06-09 08:32:00,
2013-06-09 08:41:00,62.0,30.0,-100.00,SSW,200,9.0,11.0,30,0.00,,,-99.99,,2013-06-09 08:41:00,
2013-06-09 08:52:00,61.0,29.0,-100.00,SW,217,10.0,13.0,30,0.00,,,-99.99,,2013-06-09 08:52:00,
2013-06-09 09:02:00,60.0,30.0,-100.00,WNW,292,4.0,9.0,31,0.00,,,-99.99,,2013-06-09 09:02:00,
2013-06-09 09:11:00,61.0,30.0,-100.00,SW,219,11.0,17.0,31,0.00,,,-99.99,,2013-06-09 09:11:00,
2013-06-09 09:21:00,61.0,30.0,-100.00,SW,227,12.0,18.0,31,0.00,,,-99.99,,2013-06-09 09:21:00,
2013-06-09 09:33:00,62.0,30.0,-100.00,SSW,213,17.0,22.0,30,0.00,,,-99.99,,2013-06-09 09:33:00,
2013-06-09 09:42:00,62.0,29.0,-100.00,SSW,213,17.0,21.0,29,0.00,,,-99.99,,2013-06-09 09:42:00,
2013-06-09 09:52:00,61.0,30.0,-100.00,SSW,203,20.0,23.0,30,0.00,,,-99.99,,2013-06-09 09:52:00,
2013-06-09 10:03:00,63.0,30.0,-100.00,SSW,198,23.0,25.0,29,0.00,,,-99.99,,2013-06-09 10:03:00,
2013-06-09 10:12:00,61.0,30.0,-100.00,SSW,203,22.0,25.0,30,0.00,,,-99.99,,2013-06-09 10:12:00,
2013-06-09 10:22:00,62.0,30.0,-100.00,SSW,202,21.0,26.0,30,0.00,,,-99.99,,2013-06-09 10:22:00,
2013-06-09 10:32:00,61.0,31.0,-100.00,WSW,247,9.0,14.0,32,0.00,,,-99.99,,2013-06-09 10:32:00,
2013-06-09 10:42:00,60.0,31.0,-100.00,SSW,195,11.0,14.0,32,0.00,,,-99.99,,2013-06-09 10:42:00,
2013-06-09 10:52:00,62.0,30.0,-100.00,SSW,192,7.0,11.0,30,0.00,,,-99.99,,2013-06-09 10:52:00,
2013-06-09 11:02:00,57.0,31.0,-100.00,SSW,206,4.0,6.0,36,0.00,,,-99.99,,2013-06-09 11:02:00,
2013-06-09 11:11:00,56.0,31.0,-100.00,SW,233,2.0,4.0,38,0.00,,,-99.99,,2013-06-09 11:11:00,
2013-06-09 11:22:00,54.0,31.0,-100.00,SSW,192,2.0,3.0,41,0.00,,,-99.99,,2013-06-09 11:22:00,
2013-06-09 11:32:00,54.0,31.0,-100.00,SSW,208,2.0,3.0,42,0.00,,,-99.99,,2013-06-09 11:32:00,
2013-06-09 11:41:00,53.0,31.0,-100.00,SSW,210,3.0,4.0,43,0.00,,,-99.99,,2013-06-09 11:41:00,
2013-06-09 11:52:00,52.0,32.0,-100.00,WSW,244,1.0,1.0,46,0.00,,,-99.99,,2013-06-09 11:52:00,
2013-06-09 12:02:00,51.0,33.0,-100.00,SSW,198,0.0,1.0,48,0.00,,,-99.99,,2013-06-09 12:02:00,
2013-06-09 12:11:00,52.0,33.0,-100.00,ESE,103,1.0,2.0,49,0.00,,,-99.99,,2013-06-09 12:11:00,
2013-06-09 12:22:00,52.0,34.0,-100.00,NE,45,2.0,3.0,50,0.00,,,-99.99,,2013-06-09 12:22:00,
2013-06-09 12:32:00,52.0,35.0,-100.00,ENE,69,4.0,6.0,51,0.00,,,-99.99,,2013-06-09 12:32:00,
2013-06-09 12:42:00,53.0,35.0,-100.00,ENE,62,6.0,6.0,50,0.00,,,-99.99,,2013-06-09 12:42:00,
2013-06-09 12:52:00,53.0,36.0,-100.00,ENE,78,7.0,9.0,52,0.00,,,-99.99,,2013-06-09 12:52:00,
2013-06-09 13:02:00,53.0,35.0,-100.00,ENE,64,6.0,7.0,48,0.00,,,-99.99,,2013-06-09 13:02:00,
2013-06-09 13:11:00,53.0,37.0,-100.00,ENE,72,4.0,6.0,54,0.00,,,-99.99,,2013-06-09 13:11:00,
2013-06-09 13:22:00,55.0,38.0,-100.00,SSE,164,1.0,3.0,52,0.00,,,-99.99,,2013-06-09 13:22:00,
2013-06-09 13:32:00,55.0,36.0,-100.00,SE,128,8.0,10.0,48,0.00,,,-99.99,,2013-06-09 13:32:00,
2013-06-09 13:42:00,57.0,35.0,-100.00,SE,143,3.0,4.0,44,0.00,,,-99.99,,2013-06-09 13:42:00,
2013-06-09 13:52:00,57.0,36.0,-100.00,SSE,151,6.0,7.0,44,0.00,,,-99.99,,2013-06-09 13:52:00,
2013-06-09 14:02:00,59.0,40.0,-100.00,SSE,161,4.0,5.0,48,0.00,,,-99.99,,2013-06-09 14:02:00,
2013-06-09 14:11:00,60.0,34.0,-100.00,South,175,3.0,4.0,38,0.00,,,-99.99,,2013-06-09 14:11:00,
2013-06-09 14:22:00,61.0,36.0,-100.00,SSE,160,4.0,4.0,38,0.00,,,-99.99,,2013-06-09 14:22:00,
2013-06-09 14:32:00,63.0,33.0,-100.00,South,172,2.0,3.0,33,0.00,,,-99.99,,2013-06-09 14:32:00,
2013-06-09 14:42:00,64.0,34.0,-100.00,SSW,196,1.0,2.0,32,0.00,,,-99.99,,2013-06-09 14:42:00,
2013-06-09 14:52:00,65.0,33.0,-100.00,SE,144,1.0,2.0,31,0.00,,,-99.99,,2013-06-09 14:52:00,
2013-06-09 15:02:00,65.0,33.0,-100.00,NNE,16,2.0,4.0,30,0.00,,,-99.99,,2013-06-09 15:02:00,
2013-06-09 15:11:00,65.0,36.0,-100.00,NE,56,2.0,3.0,34,0.00,,,-99.99,,2013-06-09 15:11:00,
2013-06-09 15:21:00,66.0,34.0,-100.00,ESE,110,2.0,3.0,30,0.00,,,-99.99,,2013-06-09 15:21:00,
2013-06-09 15:32:00,65.0,36.0,-100.00,NNW,335,3.0,4.0,34,0.00,,,-99.99,,2013-06-09 15:32:00,
2013-06-09 15:43:00,67.0,37.0,-100.00,NE,49,2.0,3.0,32,0.00,,,-99.99,,2013-06-09 15:43:00,
2013-06-09 15:53:00,68.0,36.0,-100.00,SW,232,2.0,4.0,30,0.00,,,-99.99,,2013-06-09 15:53:00,
2013-06-09 16:03:00,68.0,36.0,-100.00,SW,233,3.0,4.0,31,0.00,,,-99.99,,2013-06-09 16:03:00,
2013-06-09 16:12:00,68.0,36.0,-100.00,SW,226,1.0,2.0,31,0.00,,,-99.99,,2013-06-09 16:12:00,
2013-06-09 16:23:00,69.0,38.0,-100.00,NNW,337,2.0,4.0,32,0.00,,,-99.99,,2013-06-09 16:23:00,
2013-06-09 16:33:00,69.0,36.0,-100.00,East,83,4.0,6.0,29,0.00,,,-99.99,,2013-06-09 16:33:00,
2013-06-09 16:42:00,69.0,34.0,-100.00,ESE,102,4.0,7.0,27,0.00,,,-99.99,,2013-06-09 16:42:00,
2013-06-09 16:52:00,69.0,35.0,-100.00,ENE,76,8.0,10.0,27,0.00,,,-99.99,,2013-06-09 16:52:00,
2013-06-09 17:02:00,70.0,32.0,-100.00,East,97,10.0,14.0,24,0.00,,,-99.99,,2013-06-09 17:02:00,
2013-06-09 17:11:00,71.0,35.0,-100.00,East,97,11.0,15.0,27,0.00,,,-99.99,,2013-06-09 17:11:00,
2013-06-09 17:22:00,71.0,36.0,-100.00,ESE,103,12.0,16.0,28,0.00,,,-99.99,,2013-06-09 17:22:00,
2013-06-09 17:32:00,71.0,34.0,-100.00,East,96,14.0,16.0,25,0.00,,,-99.99,,2013-06-09 17:32:00,
2013-06-09 17:42:00,72.0,34.0,-100.00,East,97,14.0,17.0,24,0.00,,,-99.99,,2013-06-09 17:42:00,
2013-06-09 17:52:00,73.0,37.0,-100.00,ESE,110,10.0,14.0,26,0.00,,,-99.99,,2013-06-09 17:52:00,
2013-06-09 18:02:00,74.0,35.0,-100.00,SE,127,7.0,12.0,24,0.00,,,-99.99,,2013-06-09 18:02:00,
2013-06-09 18:11:00,76.0,35.0,-100.00,SSE,158,6.0,9.0,23,0.00,,,-99.99,,2013-06-09 18:11:00,
2013-06-09 18:21:00,76.0,32.0,-100.00,SSE,150,9.0,12.0,20,0.00,,,-99.99,,2013-06-09 18:21:00,
2013-06-09 18:32:00,78.0,34.0,-100.00,SSW,210,12.0,17.0,20,0.00,,,-99.99,,2013-06-09 18:32:00,
2013-06-09 18:42:00,79.0,34.0,-100.00,South,188,6.0,10.0,19,0.00,,,-99.99,,2013-06-09 18:42:00,
2013-06-09 18:52:00,80.0,37.0,-100.00,South,184,9.0,15.0,21,0.00,,,-99.99,,2013-06-09 18:52:00,
2013-06-09 19:02:00,81.0,35.0,-100.00,SW,226,6.0,7.0,19,0.00,,,-99.99,,2013-06-09 19:02:00,
2013-06-09 19:11:00,80.0,33.0,-100.00,WSW,254,13.0,20.0,18,0.00,,,-99.99,,2013-06-09 19:11:00,
2013-06-09 19:21:00,82.0,35.0,-100.00,West,261,16.0,21.0,18,0.00,,,-99.99,,2013-06-09 19:21:00,
2013-06-09 19:32:00,80.0,34.0,-100.00,WNW,285,6.0,9.0,19,0.00,,,-99.99,,2013-06-09 19:32:00,
2013-06-09 19:41:00,81.0,34.0,-100.00,WNW,284,6.0,9.0,18,0.00,,,-99.99,,2013-06-09 19:41:00,
2013-06-09 19:52:00,81.0,32.0,-100.00,West,274,9.0,13.0,17,0.00,,,-99.99,,2013-06-09 19:52:00,
2013-06-09 20:02:00,81.0,32.0,-100.00,WNW,282,4.0,9.0,17,0.00,,,-99.99,,2013-06-09 20:02:00,
2013-06-09 20:11:00,80.0,34.0,-100.00,NW,308,9.0,13.0,19,0.00,,,-99.99,,2013-06-09 20:11:00,
2013-06-09 20:22:00,80.0,33.0,-100.00,NW,326,5.0,7.0,18,0.00,,,-99.99,,2013-06-09 20:22:00,
2013-06-09 20:32:00,81.0,32.0,-100.00,WNW,296,7.0,11.0,17,0.00,,,-99.99,,2013-06-09 20:32:00,
2013-06-09 20:42:00,84.0,28.0,-100.00,WSW,257,15.0,21.0,13,0.00,,,-99.99,,2013-06-09 20:42:00,
2013-06-09 20:52:00,84.0,28.0,-100.00,WSW,258,21.0,25.0,13,0.00,,,-99.99,,2013-06-09 20:52:00,
2013-06-09 21:02:00,85.0,29.0,-100.00,West,272,14.0,17.0,13,0.00,,,-99.99,,2013-06-09 21:02:00,
2013-06-09 21:11:00,85.0,27.0,-100.00,West,268,10.0,16.0,12,0.00,,,-99.99,,2013-06-09 21:11:00,
2013-06-09 21:21:00,84.0,29.0,-100.00,West,268,9.0,14.0,13,0.00,,,-99.99,,2013-06-09 21:21:00,
2013-06-09 21:33:00,84.0,30.0,-100.00,WSW,247,18.0,24.0,14,0.00,,,-99.99,,2013-06-09 21:33:00,
2013-06-09 21:42:00,84.0,28.0,-100.00,WSW,253,21.0,26.0,13,0.00,,,-99.99,,2013-06-09 21:42:00,
2013-06-09 21:53:00,84.0,30.0,-100.00,SW,230,21.0,28.0,14,0.00,,,-99.99,,2013-06-09 21:53:00,
2013-06-09 22:02:00,83.0,30.0,-100.00,WSW,244,21.0,29.0,14,0.00,,,-99.99,,2013-06-09 22:02:00,
2013-06-09 22:12:00,84.0,29.0,-100.00,WSW,256,19.0,26.0,14,0.00,,,-99.99,,2013-06-09 22:12:00,
2013-06-09 22:22:00,84.0,30.0,-100.00,SW,236,18.0,24.0,14,0.00,,,-99.99,,2013-06-09 22:22:00,
2013-06-09 22:33:00,83.0,29.0,-100.00,WSW,244,23.0,29.0,14,0.00,,,-99.99,,2013-06-09 22:33:00,
2013-06-09 22:42:00,85.0,29.0,-100.00,West,263,15.0,20.0,13,0.00,,,-99.99,,2013-06-09 22:42:00,
2013-06-09 22:52:00,84.0,31.0,-100.00,WSW,237,17.0,21.0,15,0.00,,,-99.99,,2013-06-09 22:52:00,
2013-06-09 23:02:00,85.0,29.0,-100.00,West,260,16.0,22.0,13,0.00,,,-99.99,,2013-06-09 23:02:00,
2013-06-09 23:12:00,85.0,31.0,-100.00,WSW,254,17.0,21.0,14,0.00,,,-99.99,,2013-06-09 23:12:00,
2013-06-09 23:22:00,85.0,29.0,-100.00,WSW,253,16.0,21.0,13,0.00,,,-99.99,,2013-06-09 23:22:00,
2013-06-09 23:32:00,85.0,31.0,-100.00,WSW,256,12.0,16.0,14,0.00,,,-99.99,,2013-06-09 23:32:00,
2013-06-09 23:42:00,85.0,26.0,-100.00,West,263,19.0,28.0,12,0.00,,,-99.99,,2013-06-09 23:42:00,
2013-06-09 23:52:00,85.0,26.0,-100.00,WSW,257,22.0,33.0,12,0.00,,,-99.99,,2013-06-09 23:52:00,